Location: Unspecified
(40.7945°N, 0.0000°E)
Time: 08:22:00
(UTC+00:00)

deb Explorer IX - Pass Details

Date: 21 January 2021
Orbit: 537 x 1103 km, 38.8° (Epoch: 23 February)

Event Time Altitude Azimuth Distance (km) Brightness Sun altitude
Rises 17:29:01 0° 216° (SW) 3,697 ? -5.1°
Reaches altitude 10° 17:32:16 10° 204° (SSW) 2,660 ? -5.7°
Maximum altitude 17:37:18 25° 152° (SSE) 1,675 ? -6.6°
Drops below altitude 10° 17:41:47 10° 98° (E) 2,345 ? -7.4°
Enters shadow 17:42:38 - 93° (E) 2,590 ? -7.5°
